Time,TemperatureF,DewpointF,PressureIn,WindDirection,WindDirectionDegrees,WindSpeedMPH,WindSpeedGustMPH,Humidity,HourlyPrecipIn,Conditions,Clouds,dailyrainin,SoftwareType,DateUTC
2017-12-18 00:04:00,41.2,30.3,30.11,SSE,160,0.0,0.0,65,0.00,,,0.00,WUHU216DAVISVP2,2017-12-18 08:04:00,
2017-12-18 00:05:00,41.2,30.3,30.11,SSE,160,0.0,0.0,65,0.00,,,0.00,WUHU216DAVISVP2,2017-12-18 08:05:00,
2017-12-18 00:07:00,41.3,30.4,30.11,SSE,160,0.0,0.0,65,0.00,,,0.00,WUHU216DAVISVP2,2017-12-18 08:07:00,
2017-12-18 00:10:00,41.3,30.5,30.11,SSE,160,0.0,0.0,65,0.00,,,0.00,WUHU216DAVISVP2,2017-12-18 08:10:00,
2017-12-18 00:15:00,41.1,30.7,30.11,SSE,160,0.0,0.0,66,0.00,,,0.00,WUHU216DAVISVP2,2017-12-18 08:15:00,
2017-12-18 00:17:00,41.1,30.7,30.11,SSE,160,0.0,0.0,66,0.00,,,0.00,WUHU216DAVISVP2,2017-12-18 08:17:00,
2017-12-18 00:22:00,41.2,30.8,30.11,SSE,160,0.0,0.0,66,0.00,,,0.00,WUHU216DAVISVP2,2017-12-18 08:22:00,
2017-12-18 00:24:00,41.2,30.8,30.11,SSE,160,0.0,0.0,66,0.00,,,0.00,WUHU216DAVISVP2,2017-12-18 08:24:00,
2017-12-18 00:29:00,41.0,30.6,30.11,SSE,160,0.0,0.0,66,0.00,,,0.00,WUHU216DAVISVP2,2017-12-18 08:29:00,
2017-12-18 00:32:00,40.8,30.4,30.11,SSE,160,0.0,0.0,66,0.00,,,0.00,WUHU216DAVISVP2,2017-12-18 08:32:00,
2017-12-18 00:37:00,40.8,30.8,30.12,SSE,160,0.0,0.0,67,0.00,,,0.00,WUHU216DAVISVP2,2017-12-18 08:37:00,
2017-12-18 00:38:00,40.8,30.8,30.12,SSE,160,0.0,0.0,67,0.00,,,0.00,WUHU216DAVISVP2,2017-12-18 08:38:00,
2017-12-18 00:39:00,40.7,30.7,30.12,SSE,160,0.0,0.0,67,0.00,,,0.00,WUHU216DAVISVP2,2017-12-18 08:39:00,
2017-12-18 00:44:00,40.5,30.4,30.12,SSE,160,0.0,0.0,67,0.00,,,0.00,WUHU216DAVISVP2,2017-12-18 08:44:00,
2017-12-18 00:46:00,40.4,30.3,30.12,SSE,160,0.0,0.0,67,0.00,,,0.00,WUHU216DAVISVP2,2017-12-18 08:46:00,
2017-12-18 00:51:00,40.3,30.6,30.12,SSE,160,0.0,0.0,68,0.00,,,0.00,WUHU216DAVISVP2,2017-12-18 08:51:00,
2017-12-18 00:52:00,40.2,30.5,30.12,SSE,160,0.0,0.0,68,0.00,,,0.00,WUHU216DAVISVP2,2017-12-18 08:52:00,
2017-12-18 00:56:00,40.3,30.7,30.12,SSE,160,0.0,0.0,68,0.00,,,0.00,WUHU216DAVISVP2,2017-12-18 08:56:00,
2017-12-18 01:01:00,40.4,30.8,30.12,SSE,160,0.0,0.0,68,0.00,,,0.00,WUHU216DAVISVP2,2017-12-18 09:01:00,
2017-12-18 01:02:00,40.4,30.8,30.12,SSE,160,0.0,0.0,68,0.00,,,0.00,WUHU216DAVISVP2,2017-12-18 09:02:00,
2017-12-18 01:07:00,40.4,30.8,30.13,SSE,160,0.0,0.0,68,0.00,,,0.00,WUHU216DAVISVP2,2017-12-18 09:07:00,
2017-12-18 01:10:00,40.2,30.6,30.13,SSE,160,0.0,0.0,68,0.00,,,0.00,WUHU216DAVISVP2,2017-12-18 09:10:00,
2017-12-18 01:14:00,40.0,30.4,30.13,SSE,160,0.0,0.0,68,0.00,,,0.00,WUHU216DAVISVP2,2017-12-18 09:14:00,
2017-12-18 01:17:00,40.0,30.3,30.13,SSE,160,0.0,0.0,68,0.00,,,0.00,WUHU216DAVISVP2,2017-12-18 09:17:00,
2017-12-18 01:19:00,40.0,30.3,30.13,South,178,0.0,0.0,68,0.00,,,0.00,WUHU216DAVISVP2,2017-12-18 09:19:00,
2017-12-18 01:24:00,40.0,30.4,30.13,South,178,0.0,0.0,68,0.00,,,0.00,WUHU216DAVISVP2,2017-12-18 09:24:00,
2017-12-18 01:25:00,40.0,30.4,30.13,South,178,0.0,0.0,68,0.00,,,0.00,WUHU216DAVISVP2,2017-12-18 09:25:00,
2017-12-18 01:26:00,40.1,30.5,30.13,South,178,0.0,0.0,68,0.00,,,0.00,WUHU216DAVISVP2,2017-12-18 09:26:00,
2017-12-18 01:30:00,40.0,30.4,30.13,South,178,0.0,0.0,68,0.00,,,0.00,WUHU216DAVISVP2,2017-12-18 09:30:00,
2017-12-18 01:32:00,40.0,30.7,30.13,South,178,0.0,0.0,69,0.00,,,0.00,WUHU216DAVISVP2,2017-12-18 09:32:00,
2017-12-18 01:35:00,39.9,30.3,30.13,South,178,0.0,0.0,68,0.00,,,0.00,WUHU216DAVISVP2,2017-12-18 09:35:00,
2017-12-18 01:40:00,40.1,30.5,30.13,South,188,0.0,0.0,68,0.00,,,0.00,WUHU216DAVISVP2,2017-12-18 09:40:00,
2017-12-18 01:45:00,39.9,30.6,30.14,South,188,0.0,0.0,69,0.00,,,0.00,WUHU216DAVISVP2,2017-12-18 09:45:00,
2017-12-18 01:46:00,39.8,30.5,30.14,South,188,0.0,0.0,69,0.00,,,0.00,WUHU216DAVISVP2,2017-12-18 09:46:00,
2017-12-18 01:50:00,39.7,30.4,30.14,South,188,0.0,0.0,69,0.00,,,0.00,WUHU216DAVISVP2,2017-12-18 09:50:00,
2017-12-18 01:51:00,39.7,30.4,30.14,South,188,0.0,0.0,69,0.00,,,0.00,WUHU216DAVISVP2,2017-12-18 09:51:00,
2017-12-18 01:55:00,39.8,30.5,30.14,South,188,0.0,0.0,69,0.00,,,0.00,WUHU216DAVISVP2,2017-12-18 09:55:00,
2017-12-18 01:57:00,39.9,30.6,30.14,South,188,0.0,0.0,69,0.00,,,0.00,WUHU216DAVISVP2,2017-12-18 09:57:00,
2017-12-18 02:02:00,40.1,30.8,30.14,SW,219,1.0,1.0,69,0.00,,,0.00,WUHU216DAVISVP2,2017-12-18 10:02:00,
2017-12-18 02:03:00,40.1,30.8,30.14,SW,220,0.0,1.0,69,0.00,,,0.00,WUHU216DAVISVP2,2017-12-18 10:03:00,
2017-12-18 02:08:00,40.2,30.6,30.14,South,172,0.0,1.0,68,0.00,,,0.00,WUHU216DAVISVP2,2017-12-18 10:08:00,
2017-12-18 02:11:00,40.3,30.7,30.14,South,172,0.0,1.0,68,0.00,,,0.00,WUHU216DAVISVP2,2017-12-18 10:11:00,
2017-12-18 02:12:00,40.3,30.7,30.14,South,172,0.0,1.0,68,0.00,,,0.00,WUHU216DAVISVP2,2017-12-18 10:12:00,
2017-12-18 02:16:00,40.2,30.8,30.14,South,172,0.0,1.0,69,0.00,,,0.00,WUHU216DAVISVP2,2017-12-18 10:16:00,
2017-12-18 02:17:00,40.2,30.5,30.14,South,172,0.0,1.0,68,0.00,,,0.00,WUHU216DAVISVP2,2017-12-18 10:17:00,
2017-12-18 02:21:00,40.0,30.6,30.14,South,172,0.0,1.0,69,0.00,,,0.00,WUHU216DAVISVP2,2017-12-18 10:21:00,
2017-12-18 02:23:00,39.9,30.6,30.14,South,172,0.0,1.0,69,0.00,,,0.00,WUHU216DAVISVP2,2017-12-18 10:23:00,
2017-12-18 02:26:00,39.9,31.0,30.14,South,172,0.0,0.0,70,0.00,,,0.00,WUHU216DAVISVP2,2017-12-18 10:26:00,
2017-12-18 02:28:00,39.8,30.5,30.14,South,172,0.0,0.0,69,0.00,,,0.00,WUHU216DAVISVP2,2017-12-18 10:28:00,
2017-12-18 02:33:00,39.5,30.6,30.14,South,172,0.0,0.0,70,0.00,,,0.00,WUHU216DAVISVP2,2017-12-18 10:33:00,
2017-12-18 02:34:00,39.4,30.5,30.14,South,172,0.0,0.0,70,0.00,,,0.00,WUHU216DAVISVP2,2017-12-18 10:34:00,
2017-12-18 02:35:00,39.4,30.5,30.14,South,172,0.0,0.0,70,0.00,,,0.00,WUHU216DAVISVP2,2017-12-18 10:35:00,
2017-12-18 02:39:00,39.2,30.7,30.14,South,172,0.0,0.0,71,0.00,,,0.00,WUHU216DAVISVP2,2017-12-18 10:39:00,
2017-12-18 02:44:00,39.0,30.4,30.14,South,172,0.0,0.0,71,0.00,,,0.00,WUHU216DAVISVP2,2017-12-18 10:44:00,
2017-12-18 02:45:00,39.0,30.4,30.14,South,172,0.0,0.0,71,0.00,,,0.00,WUHU216DAVISVP2,2017-12-18 10:45:00,
2017-12-18 02:51:00,38.9,30.7,30.14,South,172,0.0,0.0,72,0.00,,,0.00,WUHU216DAVISVP2,2017-12-18 10:51:00,
2017-12-18 02:52:00,38.9,30.7,30.14,South,172,0.0,0.0,72,0.00,,,0.00,WUHU216DAVISVP2,2017-12-18 10:52:00,
2017-12-18 02:57:00,38.9,30.4,30.14,South,172,0.0,0.0,71,0.00,,,0.00,WUHU216DAVISVP2,2017-12-18 10:57:00,
2017-12-18 03:02:00,38.7,30.5,30.14,South,172,0.0,0.0,72,0.00,,,0.00,WUHU216DAVISVP2,2017-12-18 11:02:00,
2017-12-18 03:04:00,38.7,30.5,30.14,South,172,0.0,0.0,72,0.00,,,0.00,WUHU216DAVISVP2,2017-12-18 11:04:00,
2017-12-18 03:08:00,38.7,30.5,30.14,South,172,0.0,0.0,72,0.00,,,0.00,WUHU216DAVISVP2,2017-12-18 11:08:00,
2017-12-18 03:11:00,38.6,30.8,30.14,South,173,0.0,0.0,73,0.00,,,0.00,WUHU216DAVISVP2,2017-12-18 11:11:00,
2017-12-18 03:13:00,38.5,30.7,30.14,South,173,0.0,0.0,73,0.00,,,0.00,WUHU216DAVISVP2,2017-12-18 11:13:00,
2017-12-18 03:18:00,38.6,30.7,30.14,South,173,0.0,0.0,73,0.00,,,0.00,WUHU216DAVISVP2,2017-12-18 11:18:00,
2017-12-18 03:20:00,38.5,30.7,30.14,South,173,0.0,0.0,73,0.00,,,0.00,WUHU216DAVISVP2,2017-12-18 11:20:00,
2017-12-18 03:25:00,38.2,30.4,30.14,South,173,0.0,0.0,73,0.00,,,0.00,WUHU216DAVISVP2,2017-12-18 11:25:00,
2017-12-18 03:26:00,38.2,30.4,30.14,South,173,0.0,0.0,73,0.00,,,0.00,WUHU216DAVISVP2,2017-12-18 11:26:00,
2017-12-18 03:31:00,37.9,30.4,30.14,South,173,0.0,0.0,74,0.00,,,0.00,WUHU216DAVISVP2,2017-12-18 11:31:00,
2017-12-18 03:37:00,37.7,30.5,30.14,South,173,0.0,0.0,75,0.00,,,0.00,WUHU216DAVISVP2,2017-12-18 11:37:00,
2017-12-18 03:38:00,37.6,30.4,30.14,South,173,0.0,0.0,75,0.00,,,0.00,WUHU216DAVISVP2,2017-12-18 11:38:00,
2017-12-18 03:39:00,37.6,30.4,30.14,South,173,0.0,0.0,75,0.00,,,0.00,WUHU216DAVISVP2,2017-12-18 11:39:00,
2017-12-18 03:44:00,37.6,30.4,30.15,South,173,0.0,0.0,75,0.00,,,0.00,WUHU216DAVISVP2,2017-12-18 11:44:00,
2017-12-18 03:46:00,37.6,30.4,30.15,South,173,0.0,0.0,75,0.00,,,0.00,WUHU216DAVISVP2,2017-12-18 11:46:00,
2017-12-18 03:51:00,37.6,30.4,30.15,South,172,0.0,0.0,75,0.00,,,0.00,WUHU216DAVISVP2,2017-12-18 11:51:00,
2017-12-18 03:52:00,37.7,30.5,30.15,South,172,0.0,0.0,75,0.00,,,0.00,WUHU216DAVISVP2,2017-12-18 11:52:00,
2017-12-18 03:56:00,37.7,30.5,30.15,South,172,0.0,0.0,75,0.00,,,0.00,WUHU216DAVISVP2,2017-12-18 11:56:00,
2017-12-18 03:59:00,37.6,30.8,30.15,South,172,0.0,0.0,76,0.00,,,0.00,WUHU216DAVISVP2,2017-12-18 11:59:00,
2017-12-18 04:02:00,37.7,30.9,30.15,South,172,0.0,0.0,76,0.00,,,0.00,WUHU216DAVISVP2,2017-12-18 12:02:00,
2017-12-18 04:05:00,37.7,30.9,30.15,South,172,0.0,0.0,76,0.00,,,0.00,WUHU216DAVISVP2,2017-12-18 12:05:00,
2017-12-18 04:07:00,37.7,30.9,30.15,South,172,0.0,0.0,76,0.00,,,0.00,WUHU216DAVISVP2,2017-12-18 12:07:00,
2017-12-18 04:11:00,37.8,31.0,30.15,South,172,0.0,0.0,76,0.00,,,0.00,WUHU216DAVISVP2,2017-12-18 12:11:00,
2017-12-18 04:14:00,37.8,30.9,30.15,South,172,0.0,0.0,76,0.00,,,0.00,WUHU216DAVISVP2,2017-12-18 12:14:00,
2017-12-18 04:19:00,37.6,30.8,30.15,South,172,0.0,0.0,76,0.00,,,0.00,WUHU216DAVISVP2,2017-12-18 12:19:00,
2017-12-18 04:20:00,37.5,30.7,30.15,South,172,0.0,0.0,76,0.00,,,0.00,WUHU216DAVISVP2,2017-12-18 12:20:00,
2017-12-18 04:24:00,37.3,30.5,30.15,South,172,0.0,0.0,76,0.00,,,0.00,WUHU216DAVISVP2,2017-12-18 12:24:00,
2017-12-18 04:26:00,37.1,30.3,30.15,South,172,0.0,0.0,76,0.00,,,0.00,WUHU216DAVISVP2,2017-12-18 12:26:00,
2017-12-18 04:30:00,36.8,30.3,30.15,South,172,0.0,0.0,77,0.00,,,0.00,WUHU216DAVISVP2,2017-12-18 12:30:00,
2017-12-18 04:32:00,36.7,30.2,30.15,South,172,0.0,0.0,77,0.00,,,0.00,WUHU216DAVISVP2,2017-12-18 12:32:00,
2017-12-18 04:37:00,36.5,30.3,30.15,South,172,0.0,0.0,78,0.00,,,0.00,WUHU216DAVISVP2,2017-12-18 12:37:00,
2017-12-18 04:38:00,36.6,30.4,30.15,South,172,0.0,0.0,78,0.00,,,0.00,WUHU216DAVISVP2,2017-12-18 12:38:00,
2017-12-18 04:39:00,36.7,30.5,30.15,South,172,0.0,0.0,78,0.00,,,0.00,WUHU216DAVISVP2,2017-12-18 12:39:00,
2017-12-18 04:44:00,36.8,30.6,30.16,South,172,0.0,0.0,78,0.00,,,0.00,WUHU216DAVISVP2,2017-12-18 12:44:00,
2017-12-18 04:45:00,36.8,30.6,30.16,South,172,0.0,0.0,78,0.00,,,0.00,WUHU216DAVISVP2,2017-12-18 12:45:00,
2017-12-18 04:48:00,37.0,30.5,30.16,South,172,0.0,0.0,77,0.00,,,0.00,WUHU216DAVISVP2,2017-12-18 12:48:00,
2017-12-18 04:53:00,37.1,30.6,30.16,South,172,0.0,0.0,77,0.00,,,0.00,WUHU216DAVISVP2,2017-12-18 12:53:00,
2017-12-18 04:54:00,37.0,30.5,30.16,South,172,0.0,0.0,77,0.00,,,0.00,WUHU216DAVISVP2,2017-12-18 12:54:00,
2017-12-18 04:59:00,36.7,30.2,30.16,South,172,0.0,0.0,77,0.00,,,0.00,WUHU216DAVISVP2,2017-12-18 12:59:00,
2017-12-18 05:00:00,36.6,30.4,30.16,South,172,0.0,0.0,78,0.00,,,0.00,WUHU216DAVISVP2,2017-12-18 13:00:00,
2017-12-18 05:05:00,36.3,30.1,30.16,South,172,0.0,0.0,78,0.00,,,0.00,WUHU216DAVISVP2,2017-12-18 13:05:00,
2017-12-18 05:06:00,36.3,30.1,30.16,South,172,0.0,0.0,78,0.00,,,0.00,WUHU216DAVISVP2,2017-12-18 13:06:00,
2017-12-18 05:07:00,36.3,30.4,30.16,South,172,0.0,0.0,79,0.00,,,0.00,WUHU216DAVISVP2,2017-12-18 13:07:00,
2017-12-18 05:13:00,36.4,30.5,30.16,South,173,0.0,0.0,79,0.00,,,0.00,WUHU216DAVISVP2,2017-12-18 13:13:00,
2017-12-18 05:14:00,36.4,30.5,30.16,South,173,0.0,0.0,79,0.00,,,0.00,WUHU216DAVISVP2,2017-12-18 13:14:00,
2017-12-18 05:17:00,36.5,30.6,30.16,South,173,0.0,0.0,79,0.00,,,0.00,WUHU216DAVISVP2,2017-12-18 13:17:00,
2017-12-18 05:20:00,36.6,30.7,30.16,South,181,0.0,0.0,79,0.00,,,0.00,WUHU216DAVISVP2,2017-12-18 13:20:00,
2017-12-18 05:25:00,36.8,30.6,30.16,South,181,0.0,0.0,78,0.00,,,0.00,WUHU216DAVISVP2,2017-12-18 13:25:00,
2017-12-18 05:27:00,36.8,30.6,30.16,South,181,0.0,0.0,78,0.00,,,0.00,WUHU216DAVISVP2,2017-12-18 13:27:00,
2017-12-18 05:28:00,36.7,30.5,30.16,South,181,0.0,0.0,78,0.00,,,0.00,WUHU216DAVISVP2,2017-12-18 13:28:00,
2017-12-18 05:32:00,36.5,30.3,30.16,South,181,0.0,0.0,78,0.00,,,0.00,WUHU216DAVISVP2,2017-12-18 13:32:00,
2017-12-18 05:34:00,36.5,30.3,30.16,South,181,0.0,0.0,78,0.00,,,0.00,WUHU216DAVISVP2,2017-12-18 13:34:00,
2017-12-18 05:38:00,36.3,30.4,30.16,South,181,0.0,0.0,79,0.00,,,0.00,WUHU216DAVISVP2,2017-12-18 13:38:00,
2017-12-18 05:40:00,36.3,30.4,30.16,South,180,0.0,0.0,79,0.00,,,0.00,WUHU216DAVISVP2,2017-12-18 13:40:00,
2017-12-18 05:43:00,36.3,30.7,30.16,South,180,0.0,0.0,80,0.00,,,0.00,WUHU216DAVISVP2,2017-12-18 13:43:00,
2017-12-18 05:48:00,36.4,30.8,30.16,South,180,0.0,0.0,80,0.00,,,0.00,WUHU216DAVISVP2,2017-12-18 13:48:00,
2017-12-18 05:49:00,36.4,30.8,30.17,South,180,0.0,0.0,80,0.00,,,0.00,WUHU216DAVISVP2,2017-12-18 13:49:00,
2017-12-18 05:54:00,36.6,30.7,30.17,South,183,0.0,0.0,79,0.00,,,0.00,WUHU216DAVISVP2,2017-12-18 13:54:00,
2017-12-18 05:59:00,36.9,31.0,30.17,SSW,204,0.0,0.0,79,0.00,,,0.00,WUHU216DAVISVP2,2017-12-18 13:59:00,
2017-12-18 06:00:00,37.0,30.8,30.17,SSW,204,0.0,0.0,78,0.00,,,0.00,WUHU216DAVISVP2,2017-12-18 14:00:00,
2017-12-18 06:03:00,37.0,30.8,30.17,SSW,204,0.0,0.0,78,0.00,,,0.00,WUHU216DAVISVP2,2017-12-18 14:03:00,
2017-12-18 06:06:00,37.0,30.8,30.17,SSW,204,0.0,0.0,78,0.00,,,0.00,WUHU216DAVISVP2,2017-12-18 14:06:00,
2017-12-18 06:11:00,36.9,30.7,30.17,SSW,204,0.0,0.0,78,0.00,,,0.00,WUHU216DAVISVP2,2017-12-18 14:11:00,
2017-12-18 06:16:00,37.0,31.1,30.17,SSW,204,0.0,0.0,79,0.00,,,0.00,WUHU216DAVISVP2,2017-12-18 14:16:00,
2017-12-18 06:17:00,37.0,31.1,30.17,SSW,204,0.0,0.0,79,0.00,,,0.00,WUHU216DAVISVP2,2017-12-18 14:17:00,
2017-12-18 06:23:00,36.9,31.0,30.17,SSW,204,0.0,0.0,79,0.00,,,0.00,WUHU216DAVISVP2,2017-12-18 14:23:00,
2017-12-18 06:24:00,36.8,30.9,30.18,SSW,204,0.0,0.0,79,0.00,,,0.00,WUHU216DAVISVP2,2017-12-18 14:24:00,
2017-12-18 06:29:00,36.8,30.9,30.18,SSW,204,0.0,0.0,79,0.00,,,0.00,WUHU216DAVISVP2,2017-12-18 14:29:00,
2017-12-18 06:31:00,36.8,30.9,30.18,SSW,204,0.0,0.0,79,0.00,,,0.00,WUHU216DAVISVP2,2017-12-18 14:31:00,
2017-12-18 06:36:00,36.6,30.7,30.18,SSW,204,0.0,0.0,79,0.00,,,0.00,WUHU216DAVISVP2,2017-12-18 14:36:00,
2017-12-18 06:37:00,36.5,30.6,30.18,SSW,204,0.0,0.0,79,0.00,,,0.00,WUHU216DAVISVP2,2017-12-18 14:37:00,
2017-12-18 06:42:00,36.3,30.7,30.18,SSW,204,0.0,0.0,80,0.00,,,0.00,WUHU216DAVISVP2,2017-12-18 14:42:00,
2017-12-18 06:47:00,36.4,30.8,30.19,SSW,204,0.0,0.0,80,0.00,,,0.00,WUHU216DAVISVP2,2017-12-18 14:47:00,
2017-12-18 06:50:00,36.5,30.9,30.19,SSW,207,0.0,0.0,80,0.00,,,0.00,WUHU216DAVISVP2,2017-12-18 14:50:00,
2017-12-18 06:52:00,36.6,31.0,30.19,SW,226,0.0,1.0,80,0.00,,,0.00,WUHU216DAVISVP2,2017-12-18 14:52:00,
2017-12-18 06:55:00,36.8,31.2,30.19,SW,226,0.0,1.0,80,0.00,,,0.00,WUHU216DAVISVP2,2017-12-18 14:55:00,
2017-12-18 07:00:00,36.9,31.3,30.19,SW,226,0.0,1.0,80,0.00,,,0.00,WUHU216DAVISVP2,2017-12-18 15:00:00,
2017-12-18 07:01:00,36.9,31.3,30.19,SW,226,0.0,1.0,80,0.00,,,0.00,WUHU216DAVISVP2,2017-12-18 15:01:00,
2017-12-18 07:06:00,37.1,31.5,30.20,SW,226,0.0,1.0,80,0.00,,,0.00,WUHU216DAVISVP2,2017-12-18 15:06:00,
2017-12-18 07:09:00,37.2,31.6,30.19,SW,226,0.0,1.0,80,0.00,,,0.00,WUHU216DAVISVP2,2017-12-18 15:09:00,
2017-12-18 07:12:00,37.2,31.3,30.20,SW,226,0.0,0.0,79,0.00,,,0.00,WUHU216DAVISVP2,2017-12-18 15:12:00,
2017-12-18 07:14:00,37.2,31.3,30.20,SW,226,0.0,0.0,79,0.00,,,0.00,WUHU216DAVISVP2,2017-12-18 15:14:00,
2017-12-18 07:17:00,37.1,31.5,30.20,SW,226,0.0,0.0,80,0.00,,,0.00,WUHU216DAVISVP2,2017-12-18 15:17:00,
2017-12-18 07:19:00,37.0,31.1,30.20,SW,226,0.0,0.0,79,0.00,,,0.00,WUHU216DAVISVP2,2017-12-18 15:19:00,
2017-12-18 07:23:00,37.1,31.5,30.20,SW,226,0.0,0.0,80,0.00,,,0.00,WUHU216DAVISVP2,2017-12-18 15:23:00,
2017-12-18 07:28:00,37.6,31.7,30.20,SW,225,0.0,0.0,79,0.00,,,0.00,WUHU216DAVISVP2,2017-12-18 15:28:00,
2017-12-18 07:33:00,38.0,31.8,30.20,SW,225,0.0,0.0,78,0.00,,,0.00,WUHU216DAVISVP2,2017-12-18 15:33:00,
2017-12-18 07:35:00,38.0,31.8,30.20,SW,225,0.0,0.0,78,0.00,,,0.00,WUHU216DAVISVP2,2017-12-18 15:35:00,
2017-12-18 07:40:00,37.9,31.7,30.20,SW,225,0.0,0.0,78,0.00,,,0.00,WUHU216DAVISVP2,2017-12-18 15:40:00,
2017-12-18 07:42:00,37.9,31.7,30.20,SW,225,0.0,0.0,78,0.00,,,0.00,WUHU216DAVISVP2,2017-12-18 15:42:00,
2017-12-18 07:46:00,37.6,31.4,30.20,SW,225,0.0,0.0,78,0.00,,,0.00,WUHU216DAVISVP2,2017-12-18 15:46:00,
2017-12-18 07:51:00,37.5,31.3,30.21,SW,225,0.0,0.0,78,0.00,,,0.00,WUHU216DAVISVP2,2017-12-18 15:51:00,
2017-12-18 07:53:00,37.5,31.6,30.21,SW,225,0.0,0.0,79,0.00,,,0.00,WUHU216DAVISVP2,2017-12-18 15:53:00,
2017-12-18 07:58:00,37.7,31.8,30.21,SW,225,0.0,0.0,79,0.00,,,0.00,WUHU216DAVISVP2,2017-12-18 15:58:00,
2017-12-18 07:59:00,37.7,31.8,30.21,SW,225,0.0,0.0,79,0.00,,,0.00,WUHU216DAVISVP2,2017-12-18 15:59:00,
2017-12-18 08:00:00,37.7,31.8,30.21,SW,225,0.0,0.0,79,0.00,,,0.00,WUHU216DAVISVP2,2017-12-18 16:00:00,
2017-12-18 08:04:00,38.2,32.3,30.21,SW,225,0.0,0.0,79,0.00,,,0.00,WUHU216DAVISVP2,2017-12-18 16:04:00,
2017-12-18 08:05:00,38.3,32.0,30.21,SW,225,0.0,0.0,78,0.00,,,0.00,WUHU216DAVISVP2,2017-12-18 16:05:00,
2017-12-18 08:09:00,39.1,32.5,30.21,SW,225,0.0,0.0,77,0.00,,,0.00,WUHU216DAVISVP2,2017-12-18 16:09:00,
2017-12-18 08:14:00,39.9,33.0,30.20,SW,226,0.0,0.0,76,0.00,,,0.00,WUHU216DAVISVP2,2017-12-18 16:14:00,
2017-12-18 08:15:00,40.1,33.1,30.20,SW,226,0.0,0.0,76,0.00,,,0.00,WUHU216DAVISVP2,2017-12-18 16:15:00,
2017-12-18 08:16:00,40.1,33.1,30.20,SW,226,0.0,0.0,76,0.00,,,0.00,WUHU216DAVISVP2,2017-12-18 16:16:00,
2017-12-18 08:21:00,41.2,33.6,30.20,SW,215,0.0,0.0,74,0.00,,,0.00,WUHU216DAVISVP2,2017-12-18 16:21:00,
2017-12-18 08:24:00,41.9,33.9,30.20,SSW,210,0.0,0.0,73,0.00,,,0.00,WUHU216DAVISVP2,2017-12-18 16:24:00,
2017-12-18 08:27:00,42.9,34.2,30.20,SSW,210,0.0,0.0,71,0.00,,,0.00,WUHU216DAVISVP2,2017-12-18 16:27:00,
2017-12-18 08:32:00,44.0,34.6,30.20,SSW,210,0.0,0.0,69,0.00,,,0.00,WUHU216DAVISVP2,2017-12-18 16:32:00,
2017-12-18 08:35:00,44.6,34.8,30.20,SSW,210,0.0,0.0,68,0.00,,,0.00,WUHU216DAVISVP2,2017-12-18 16:35:00,
2017-12-18 08:40:00,45.3,34.6,30.20,SSW,211,0.0,0.0,66,0.00,,,0.00,WUHU216DAVISVP2,2017-12-18 16:40:00,
2017-12-18 08:41:00,45.7,35.1,30.20,SSW,211,0.0,0.0,66,0.00,,,0.00,WUHU216DAVISVP2,2017-12-18 16:41:00,
2017-12-18 08:46:00,47.3,36.1,30.20,SSW,210,0.0,0.0,65,0.00,,,0.00,WUHU216DAVISVP2,2017-12-18 16:46:00,
2017-12-18 08:47:00,47.5,36.3,30.20,SSW,210,0.0,0.0,65,0.00,,,0.00,WUHU216DAVISVP2,2017-12-18 16:47:00,
2017-12-18 08:52:00,49.2,36.4,30.20,SSW,210,0.0,0.0,61,0.00,,,0.00,WUHU216DAVISVP2,2017-12-18 16:52:00,
2017-12-18 08:57:00,50.0,35.0,30.20,SW,214,0.0,0.0,56,0.00,,,0.00,WUHU216DAVISVP2,2017-12-18 16:57:00,
2017-12-18 08:58:00,49.9,34.9,30.20,SW,214,0.0,0.0,56,0.00,,,0.00,WUHU216DAVISVP2,2017-12-18 16:58:00,
2017-12-18 09:01:00,49.7,35.1,30.21,SW,215,0.0,0.0,57,0.00,,,0.00,WUHU216DAVISVP2,2017-12-18 17:01:00,
2017-12-18 09:03:00,49.7,35.1,30.21,SW,215,0.0,0.0,57,0.00,,,0.00,WUHU216DAVISVP2,2017-12-18 17:03:00,
2017-12-18 09:07:00,49.7,35.5,30.21,SW,215,0.0,0.0,58,0.00,,,0.00,WUHU216DAVISVP2,2017-12-18 17:07:00,
2017-12-18 09:08:00,49.8,35.6,30.21,SW,215,0.0,0.0,58,0.00,,,0.00,WUHU216DAVISVP2,2017-12-18 17:08:00,
2017-12-18 09:13:00,50.3,36.2,30.21,SW,215,0.0,0.0,58,0.00,,,0.00,WUHU216DAVISVP2,2017-12-18 17:13:00,
2017-12-18 09:15:00,50.5,36.3,30.21,SW,215,0.0,0.0,58,0.00,,,0.00,WUHU216DAVISVP2,2017-12-18 17:15:00,
2017-12-18 09:20:00,51.3,36.2,30.21,SSW,212,0.0,0.0,56,0.00,,,0.00,WUHU216DAVISVP2,2017-12-18 17:20:00,
2017-12-18 09:24:00,51.2,36.1,30.22,SSW,212,0.0,0.0,56,0.00,,,0.00,WUHU216DAVISVP2,2017-12-18 17:24:00,
2017-12-18 09:29:00,51.6,36.5,30.22,SW,217,0.0,0.0,56,0.00,,,0.00,WUHU216DAVISVP2,2017-12-18 17:29:00,
2017-12-18 09:34:00,52.0,36.3,30.21,SW,218,0.0,0.0,55,0.00,,,0.00,WUHU216DAVISVP2,2017-12-18 17:34:00,
2017-12-18 09:39:00,52.4,37.2,30.22,SW,229,0.0,0.0,56,0.00,,,0.00,WUHU216DAVISVP2,2017-12-18 17:39:00,
2017-12-18 09:40:00,52.5,37.3,30.22,SW,229,0.0,0.0,56,0.00,,,0.00,WUHU216DAVISVP2,2017-12-18 17:40:00,
2017-12-18 09:41:00,52.6,36.9,30.21,SW,229,0.0,0.0,55,0.00,,,0.00,WUHU216DAVISVP2,2017-12-18 17:41:00,
2017-12-18 09:46:00,52.9,37.2,30.22,WSW,240,0.3,1.0,55,0.00,,,0.00,WUHU216DAVISVP2,2017-12-18 17:46:00,
2017-12-18 09:47:00,53.0,37.3,30.21,WSW,240,0.3,1.0,55,0.00,,,0.00,WUHU216DAVISVP2,2017-12-18 17:47:00,
2017-12-18 09:52:00,52.9,37.2,30.22,WNW,302,0.2,1.0,55,0.00,,,0.00,WUHU216DAVISVP2,2017-12-18 17:52:00,
2017-12-18 09:53:00,52.9,37.2,30.22,WNW,302,0.2,1.0,55,0.00,,,0.00,WUHU216DAVISVP2,2017-12-18 17:53:00,
2017-12-18 09:55:00,53.1,37.4,30.22,WNW,303,0.1,1.0,55,0.00,,,0.00,WUHU216DAVISVP2,2017-12-18 17:55:00,
2017-12-18 09:59:00,53.5,38.3,30.22,NNE,23,0.0,1.0,56,0.00,,,0.00,WUHU216DAVISVP2,2017-12-18 17:59:00,
2017-12-18 10:01:00,53.9,37.7,30.22,NNE,13,0.0,1.0,54,0.00,,,0.00,WUHU216DAVISVP2,2017-12-18 18:01:00,
2017-12-18 10:06:00,54.4,38.1,30.22,NNE,29,0.7,2.0,54,0.00,,,0.00,WUHU216DAVISVP2,2017-12-18 18:06:00,
2017-12-18 10:10:00,54.6,37.8,30.22,NW,310,1.0,2.0,53,0.00,,,0.00,WUHU216DAVISVP2,2017-12-18 18:10:00,
2017-12-18 10:12:00,54.7,37.9,30.22,WNW,302,1.0,2.0,53,0.00,,,0.00,WUHU216DAVISVP2,2017-12-18 18:12:00,
2017-12-18 10:16:00,54.9,37.6,30.22,NW,312,0.1,2.0,52,0.00,,,0.00,WUHU216DAVISVP2,2017-12-18 18:16:00,
2017-12-18 10:18:00,55.0,37.7,30.22,NW,304,0.2,2.0,52,0.00,,,0.00,WUHU216DAVISVP2,2017-12-18 18:18:00,
2017-12-18 10:23:00,55.5,37.7,30.22,WNW,302,1.0,2.0,51,0.00,,,0.00,WUHU216DAVISVP2,2017-12-18 18:23:00,
2017-12-18 10:24:00,55.4,37.1,30.22,WNW,299,0.4,2.0,50,0.00,,,0.00,WUHU216DAVISVP2,2017-12-18 18:24:00,
2017-12-18 10:29:00,55.4,37.1,30.22,NW,305,0.0,2.0,50,0.00,,,0.00,WUHU216DAVISVP2,2017-12-18 18:29:00,
2017-12-18 10:32:00,55.7,37.9,30.22,NNE,32,1.0,2.0,51,0.00,,,0.00,WUHU216DAVISVP2,2017-12-18 18:32:00,
2017-12-18 10:35:00,55.8,38.5,30.22,East,83,0.9,3.0,52,0.00,,,0.00,WUHU216DAVISVP2,2017-12-18 18:35:00,
2017-12-18 10:39:00,56.4,38.0,30.22,ENE,59,0.6,3.0,50,0.00,,,0.00,WUHU216DAVISVP2,2017-12-18 18:39:00,
2017-12-18 10:40:00,56.4,37.4,30.22,ENE,58,0.6,3.0,49,0.00,,,0.00,WUHU216DAVISVP2,2017-12-18 18:40:00,
2017-12-18 10:45:00,56.5,38.1,30.21,ENE,75,3.0,3.0,50,0.00,,,0.00,WUHU216DAVISVP2,2017-12-18 18:45:00,
2017-12-18 10:46:00,56.3,37.4,30.21,ENE,69,1.7,3.0,49,0.00,,,0.00,WUHU216DAVISVP2,2017-12-18 18:46:00,
2017-12-18 10:51:00,56.4,37.5,30.21,ESE,103,0.3,3.0,49,0.00,,,0.00,WUHU216DAVISVP2,2017-12-18 18:51:00,
2017-12-18 10:53:00,56.6,37.1,30.21,ESE,114,0.0,3.0,48,0.00,,,0.00,WUHU216DAVISVP2,2017-12-18 18:53:00,
2017-12-18 10:56:00,57.1,38.1,30.21,SSW,210,0.0,3.0,49,0.00,,,0.00,WUHU216DAVISVP2,2017-12-18 18:56:00,
2017-12-18 10:59:00,57.4,37.3,30.20,NE,52,0.8,3.0,47,0.00,,,0.00,WUHU216DAVISVP2,2017-12-18 18:59:00,
2017-12-18 11:03:00,57.6,37.5,30.20,West,266,1.0,3.0,47,0.00,,,0.00,WUHU216DAVISVP2,2017-12-18 19:03:00,
2017-12-18 11:08:00,57.9,37.2,30.20,NW,318,0.1,3.0,46,0.00,,,0.00,WUHU216DAVISVP2,2017-12-18 19:08:00,
2017-12-18 11:09:00,58.0,37.9,30.20,NW,318,2.0,3.0,47,0.00,,,0.00,WUHU216DAVISVP2,2017-12-18 19:09:00,
2017-12-18 11:14:00,57.9,37.2,30.20,NW,319,0.5,3.0,46,0.00,,,0.00,WUHU216DAVISVP2,2017-12-18 19:14:00,
2017-12-18 11:19:00,58.1,37.4,30.19,WSW,252,0.0,3.0,46,0.00,,,0.00,WUHU216DAVISVP2,2017-12-18 19:19:00,
2017-12-18 11:26:00,59.3,37.9,30.19,NE,52,0.3,3.0,45,0.00,,,0.00,WUHU216DAVISVP2,2017-12-18 19:26:00,
2017-12-18 11:31:00,59.4,37.4,30.19,NNW,327,0.1,2.0,44,0.00,,,0.00,WUHU216DAVISVP2,2017-12-18 19:31:00,
2017-12-18 11:32:00,59.4,38.0,30.19,North,2,1.0,2.0,45,0.00,,,0.00,WUHU216DAVISVP2,2017-12-18 19:32:00,
2017-12-18 11:36:00,59.4,38.0,30.19,North,5,0.1,1.0,45,0.00,,,0.00,WUHU216DAVISVP2,2017-12-18 19:36:00,
2017-12-18 11:38:00,59.3,37.9,30.19,North,4,0.2,1.0,45,0.00,,,0.00,WUHU216DAVISVP2,2017-12-18 19:38:00,
2017-12-18 11:43:00,59.6,37.6,30.18,NNE,27,2.0,3.0,44,0.00,,,0.00,WUHU216DAVISVP2,2017-12-18 19:43:00,
2017-12-18 11:45:00,59.5,37.5,30.18,ENE,58,1.9,4.0,44,0.00,,,0.00,WUHU216DAVISVP2,2017-12-18 19:45:00,
2017-12-18 11:50:00,59.3,37.3,30.18,NE,42,3.0,5.0,44,0.00,,,0.00,WUHU216DAVISVP2,2017-12-18 19:50:00,
2017-12-18 11:52:00,59.1,37.1,30.18,NE,43,2.7,5.0,44,0.00,,,0.00,WUHU216DAVISVP2,2017-12-18 19:52:00,
2017-12-18 11:57:00,59.3,36.7,30.18,NNE,20,6.0,6.0,43,0.00,,,0.00,WUHU216DAVISVP2,2017-12-18 19:57:00,
2017-12-18 11:59:00,59.5,36.9,30.18,NNE,27,1.6,6.0,43,0.00,,,0.00,WUHU216DAVISVP2,2017-12-18 19:59:00,
2017-12-18 12:00:00,59.6,37.0,30.18,NE,46,3.0,6.0,43,0.00,,,0.00,WUHU216DAVISVP2,2017-12-18 20:00:00,
2017-12-18 12:05:00,59.5,36.3,30.17,NNE,29,1.0,6.0,42,0.00,,,0.00,WUHU216DAVISVP2,2017-12-18 20:05:00,
2017-12-18 12:15:00,60.4,36.4,30.17,NNE,22,0.0,6.0,41,0.00,,,0.00,WUHU216DAVISVP2,2017-12-18 20:15:00,
2017-12-18 12:19:00,60.7,36.1,30.17,North,357,0.2,4.0,40,0.00,,,0.00,WUHU216DAVISVP2,2017-12-18 20:19:00,
2017-12-18 12:21:00,60.9,36.9,30.17,North,359,2.0,3.0,41,0.00,,,0.00,WUHU216DAVISVP2,2017-12-18 20:21:00,
2017-12-18 12:26:00,61.0,36.3,30.17,NE,43,0.5,3.0,40,0.00,,,0.00,WUHU216DAVISVP2,2017-12-18 20:26:00,
2017-12-18 12:29:00,61.0,35.7,30.17,WNW,302,1.0,3.0,39,0.00,,,0.00,WUHU216DAVISVP2,2017-12-18 20:29:00,
2017-12-18 12:34:00,61.5,36.1,30.17,ESE,122,0.6,3.0,39,0.00,,,0.00,WUHU216DAVISVP2,2017-12-18 20:34:00,
2017-12-18 12:35:00,61.7,37.0,30.17,ENE,58,2.0,3.0,40,0.00,,,0.00,WUHU216DAVISVP2,2017-12-18 20:35:00,
2017-12-18 12:38:00,62.0,35.9,30.17,NE,45,0.3,2.0,38,0.00,,,0.00,WUHU216DAVISVP2,2017-12-18 20:38:00,
2017-12-18 12:41:00,62.2,36.1,30.17,NW,309,3.0,3.0,38,0.00,,,0.00,WUHU216DAVISVP2,2017-12-18 20:41:00,
2017-12-18 12:46:00,62.0,35.2,30.17,NW,323,0.1,3.0,37,0.00,,,0.00,WUHU216DAVISVP2,2017-12-18 20:46:00,
2017-12-18 12:47:00,62.0,35.9,30.17,NE,37,1.0,3.0,38,0.00,,,0.00,WUHU216DAVISVP2,2017-12-18 20:47:00,
2017-12-18 12:52:00,61.7,35.1,30.16,NW,311,1.6,5.0,37,0.00,,,0.00,WUHU216DAVISVP2,2017-12-18 20:52:00,
2017-12-18 12:54:00,61.5,35.0,30.16,WNW,296,0.3,5.0,37,0.00,,,0.00,WUHU216DAVISVP2,2017-12-18 20:54:00,
2017-12-18 12:59:00,61.8,35.1,30.16,NNE,26,2.0,5.0,37,0.00,,,0.00,WUHU216DAVISVP2,2017-12-18 20:59:00,
2017-12-18 13:00:00,61.8,35.1,30.16,NNE,20,0.9,5.0,37,0.00,,,0.00,WUHU216DAVISVP2,2017-12-18 21:00:00,
2017-12-18 13:05:00,61.9,35.1,30.16,NW,315,2.0,5.0,37,0.00,,,0.00,WUHU216DAVISVP2,2017-12-18 21:05:00,
2017-12-18 13:10:00,61.9,35.1,30.16,NW,321,0.5,4.0,37,0.00,,,0.00,WUHU216DAVISVP2,2017-12-18 21:10:00,
2017-12-18 13:12:00,62.0,35.9,30.16,NNW,341,0.3,3.0,38,0.00,,,0.00,WUHU216DAVISVP2,2017-12-18 21:12:00,
2017-12-18 13:17:00,62.2,34.7,30.16,NW,308,1.2,4.0,36,0.00,,,0.00,WUHU216DAVISVP2,2017-12-18 21:17:00,
2017-12-18 13:22:00,62.0,34.5,30.16,NNE,32,0.4,4.0,36,0.00,,,0.00,WUHU216DAVISVP2,2017-12-18 21:22:00,
2017-12-18 13:26:00,62.3,34.8,30.15,NNE,27,1.0,4.0,36,0.00,,,0.00,WUHU216DAVISVP2,2017-12-18 21:26:00,
2017-12-18 13:27:00,62.3,34.8,30.15,NE,36,2.0,4.0,36,0.00,,,0.00,WUHU216DAVISVP2,2017-12-18 21:27:00,
2017-12-18 13:32:00,62.0,34.5,30.15,NE,42,0.8,4.0,36,0.00,,,0.00,WUHU216DAVISVP2,2017-12-18 21:32:00,
2017-12-18 13:37:00,62.1,34.1,30.15,NE,36,1.9,7.0,35,0.00,,,0.00,WUHU216DAVISVP2,2017-12-18 21:37:00,
2017-12-18 13:38:00,62.1,34.1,30.15,NE,39,4.0,7.0,35,0.00,,,0.00,WUHU216DAVISVP2,2017-12-18 21:38:00,
2017-12-18 13:43:00,62.2,34.2,30.16,North,358,1.0,7.0,35,0.00,,,0.00,WUHU216DAVISVP2,2017-12-18 21:43:00,
2017-12-18 13:44:00,62.2,34.2,30.16,North,1,0.4,7.0,35,0.00,,,0.00,WUHU216DAVISVP2,2017-12-18 21:44:00,
2017-12-18 13:46:00,62.3,34.3,30.16,NW,313,0.3,7.0,35,0.00,,,0.00,WUHU216DAVISVP2,2017-12-18 21:46:00,
2017-12-18 13:51:00,62.6,34.4,30.16,NW,309,1.1,7.0,35,0.00,,,0.00,WUHU216DAVISVP2,2017-12-18 21:51:00,
2017-12-18 13:52:00,62.6,34.4,30.16,NW,308,1.1,7.0,35,0.00,,,0.00,WUHU216DAVISVP2,2017-12-18 21:52:00,
2017-12-18 13:57:00,62.9,34.6,30.15,WNW,295,2.0,4.0,35,0.00,,,0.00,WUHU216DAVISVP2,2017-12-18 21:57:00,
2017-12-18 13:59:00,62.8,33.8,30.15,NNW,339,1.0,3.0,34,0.00,,,0.00,WUHU216DAVISVP2,2017-12-18 21:59:00,
2017-12-18 14:04:00,62.5,33.5,30.15,NW,306,0.5,3.0,34,0.00,,,0.00,WUHU216DAVISVP2,2017-12-18 22:04:00,
2017-12-18 14:05:00,62.6,32.9,30.15,WNW,298,0.4,3.0,33,0.00,,,0.00,WUHU216DAVISVP2,2017-12-18 22:05:00,
2017-12-18 14:07:00,62.6,32.9,30.15,WNW,303,0.4,3.0,33,0.00,,,0.00,WUHU216DAVISVP2,2017-12-18 22:07:00,
2017-12-18 14:11:00,63.1,33.3,30.15,North,355,0.5,3.0,33,0.00,,,0.00,WUHU216DAVISVP2,2017-12-18 22:11:00,
2017-12-18 14:16:00,63.0,34.0,30.15,NW,318,2.0,3.0,34,0.00,,,0.00,WUHU216DAVISVP2,2017-12-18 22:16:00,
2017-12-18 14:17:00,63.0,34.0,30.15,NW,314,1.0,3.0,34,0.00,,,0.00,WUHU216DAVISVP2,2017-12-18 22:17:00,
2017-12-18 14:19:00,63.1,34.1,30.15,WNW,300,1.0,3.0,34,0.00,,,0.00,WUHU216DAVISVP2,2017-12-18 22:19:00,
2017-12-18 14:22:00,63.2,34.1,30.15,NNE,28,0.7,3.0,34,0.00,,,0.00,WUHU216DAVISVP2,2017-12-18 22:22:00,
2017-12-18 14:27:00,63.2,34.9,30.15,NW,309,0.6,3.0,35,0.00,,,0.00,WUHU216DAVISVP2,2017-12-18 22:27:00,
2017-12-18 14:32:00,63.8,35.6,30.15,WNW,284,1.0,3.0,35,0.00,,,0.00,WUHU216DAVISVP2,2017-12-18 22:32:00,
2017-12-18 14:33:00,63.9,35.0,30.14,WNW,284,0.2,3.0,34,0.00,,,0.00,WUHU216DAVISVP2,2017-12-18 22:33:00,
2017-12-18 14:37:00,63.9,34.8,30.14,NNW,328,0.0,3.0,34,0.00,,,0.00,WUHU216DAVISVP2,2017-12-18 22:37:00,
2017-12-18 14:39:00,63.8,35.4,30.14,NNW,328,0.0,3.0,35,0.00,,,0.00,WUHU216DAVISVP2,2017-12-18 22:39:00,
2017-12-18 14:44:00,63.5,34.4,30.15,NE,43,0.1,2.0,34,0.00,,,0.00,WUHU216DAVISVP2,2017-12-18 22:44:00,
2017-12-18 14:45:00,63.6,35.2,30.14,NW,322,0.0,2.0,35,0.00,,,0.00,WUHU216DAVISVP2,2017-12-18 22:45:00,
2017-12-18 14:50:00,63.3,34.2,30.14,NE,40,0.4,2.0,34,0.00,,,0.00,WUHU216DAVISVP2,2017-12-18 22:50:00,
2017-12-18 14:53:00,63.3,34.2,30.14,NE,38,0.0,2.0,34,0.00,,,0.00,WUHU216DAVISVP2,2017-12-18 22:53:00,